Starlink 3324

operational
NORAD ID: 50814 Int'l Des: 2022-001 Owner: SPXS Country: US Constellation: starlink
LEOCIRCULAR

关于 Starlink 3324

正在加载描述...

实时位置

正在加载3D地球...

即将过境

高度历史

Altitude vs Time

uPlot chart will show altitude changes over time

两行轨道根数

1 50814U 22001M 25347.85927411 -.00000058 00000-0 14445-4 0 9997
2 50814 53.2166 194.4280 0001610 93.6839 266.4337 15.08838948217451
Epoch: Dec 13, 2025 • Age: 16 hours

当前状态

高度 544.0 km
速度 7.60 km/s
星下点 47.73°N, 37.77°E
发射日期 Jan 6, 2022
运行时间 3.9 years
类型 internet

技术详情

分类 Payload
质量 297.00 kg
干质量 275.00 kg
总质量 297.00 kg
长度 0.20 m
直径 2.80 m
跨度 9.00 m
形状 Box + pan
制造商 SPXS
平台类型 Starlink
阶段状态 In Orbit
所有者/国家 SPXS/US

大型星座

Loading constellations...